When you browse on this site, cookies collect data to enhance your experience and personalize the content and advertising you see.
Visit our Privacy Policy to learn more. By continuing to use the site, you agree to this use of cookies and data.
  • In Sweden
  • List of Countries
  • For 7 days
  • Water Temperature
  • Satellite Maps
  • Weather Map
  • Weather Widgets
  • user-avatar
    Login

    Hourly Weather Zamuravskie Vyselki

    Today, 22 May, Wednesday

    Time Temperature Precipitation Wind Pressure Humidity
    00:00 +12°C° 0 mm 3 mps 746 mmHg 58%
    01:00 +12°C° 0 mm 3 mps 746 mmHg 67%
    02:00 +12°C° 0 mm 3 mps 745 mmHg 76%
    03:00 +12°C° 0 mm 2 mps 745 mmHg 83%
    04:00 +12°C° 0 mm 3 mps 745 mmHg 82%
    05:00 +13°C° 0 mm 3 mps 745 mmHg 81%
    06:00 +13°C° 0 mm 4 mps 745 mmHg 81%
    07:00 +15°C° 0 mm 4 mps 744 mmHg 76%
    08:00 +18°C° 0 mm 4 mps 744 mmHg 70%
    09:00 +20°C° 0 mm 5 mps 744 mmHg 65%
    10:00 +21°C° 0.7 mm 5 mps 743 mmHg 63%
    11:00 +21°C° 0.7 mm 5 mps 743 mmHg 62%
    12:00 +22°C° 0.7 mm 5 mps 743 mmHg 60%
    13:00 +22°C° 0.2 mm 5 mps 742 mmHg 58%
    14:00 +22°C° 0.2 mm 5 mps 742 mmHg 56%
    15:00 +23°C° 0.2 mm 5 mps 742 mmHg 54%
    16:00 +22°C° 0.4 mm 5 mps 742 mmHg 59%
    17:00 +21°C° 0.4 mm 5 mps 741 mmHg 65%
    18:00 +20°C° 0.4 mm 4 mps 741 mmHg 71%
    19:00 +19°C° 0.1 mm 4 mps 741 mmHg 76%
    20:00 +17°C° 0.1 mm 4 mps 741 mmHg 81%
    21:00 +16°C° 0.1 mm 3 mps 741 mmHg 86%
    22:00 +14°C° 0.1 mm 4 mps 741 mmHg 86%
    23:00 +14°C° 0.1 mm 4 mps 741 mmHg 85%

    Tomorrow, 23 May, Thursday

    Time Temperature Precipitation Wind Pressure Humidity
    00:00 +14°C° 0.1 mm 4 mps 740 mmHg 85%
    01:00 +14°C° 0 mm 4 mps 740 mmHg 83%
    02:00 +13°C° 0 mm 4 mps 740 mmHg 80%
    03:00 +12°C° 0 mm 4 mps 740 mmHg 78%
    04:00 +13°C° 0 mm 4 mps 739 mmHg 78%
    05:00 +13°C° 0 mm 4 mps 739 mmHg 77%
    06:00 +13°C° 0 mm 4 mps 739 mmHg 77%
    07:00 +15°C° 0 mm 5 mps 739 mmHg 72%
    08:00 +16°C° 0 mm 5 mps 738 mmHg 67%
    09:00 +19°C° 0 mm 5 mps 738 mmHg 62%
    10:00 +20°C° 0 mm 5 mps 738 mmHg 59%
    11:00 +21°C° 0 mm 5 mps 737 mmHg 56%
    12:00 +22°C° 0 mm 5 mps 737 mmHg 53%
    13:00 +22°C° 0 mm 5 mps 737 mmHg 54%
    14:00 +23°C° 0 mm 5 mps 736 mmHg 55%
    15:00 +23°C° 0 mm 5 mps 736 mmHg 57%
    16:00 +22°C° 0.3 mm 4 mps 736 mmHg 62%
    17:00 +22°C° 0.3 mm 4 mps 735 mmHg 67%
    18:00 +21°C° 0.3 mm 3 mps 735 mmHg 73%
    19:00 +20°C° 0.2 mm 3 mps 735 mmHg 77%
    20:00 +18°C° 0.2 mm 3 mps 735 mmHg 82%
    21:00 +17°C° 0.2 mm 3 mps 735 mmHg 87%
    22:00 +16°C° 0.2 mm 3 mps 735 mmHg 89%
    23:00 +16°C° 0.2 mm 2 mps 735 mmHg 91%

    Day after tomorrow, 24 May, Friday

    Time Temperature Precipitation Wind Pressure Humidity
    00:00 +15°C° 0.2 mm 2 mps 735 mmHg 92%
    01:00 +15°C° 0 mm 2 mps 735 mmHg 93%
    02:00 +14°C° 0 mm 2 mps 735 mmHg 94%
    03:00 +14°C° 0 mm 2 mps 736 mmHg 95%
    04:00 +13°C° 0 mm 3 mps 736 mmHg 94%
    05:00 +13°C° 0 mm 4 mps 736 mmHg 94%
    06:00 +13°C° 0 mm 4 mps 737 mmHg 94%
    07:00 +13°C° 0 mm 5 mps 737 mmHg 92%
    08:00 +13°C° 0 mm 5 mps 738 mmHg 90%
    09:00 +12°C° 0 mm 5 mps 739 mmHg 89%
    10:00 +13°C° 0 mm 5 mps 739 mmHg 85%
    11:00 +14°C° 0 mm 5 mps 739 mmHg 81%
    12:00 +14°C° 0 mm 5 mps 740 mmHg 77%
    13:00 +15°C° 0 mm 5 mps 740 mmHg 73%
    14:00 +16°C° 0 mm 5 mps 740 mmHg 68%
    15:00 +18°C° 0 mm 4 mps 741 mmHg 63%
    16:00 +17°C° 0 mm 4 mps 741 mmHg 64%
    17:00 +17°C° 0 mm 4 mps 741 mmHg 64%
    18:00 +15°C° 0 mm 4 mps 741 mmHg 65%
    19:00 +14°C° 0 mm 4 mps 742 mmHg 68%
    20:00 +12°C° 0 mm 4 mps 742 mmHg 71%
    21:00 +10°C° 0 mm 4 mps 742 mmHg 73%
    22:00 +10°C° 0 mm 4 mps 743 mmHg 74%
    23:00 +8°C° 0 mm 4 mps 743 mmHg 74%

    25 May, Saturday

    Time Temperature Precipitation Wind Pressure Humidity
    00:00 +7°C° 0 mm 4 mps 743 mmHg 75%
    01:00 +7°C° 0 mm 4 mps 743 mmHg 76%
    02:00 +7°C° 0 mm 4 mps 743 mmHg 77%
    03:00 +7°C° 0 mm 4 mps 743 mmHg 79%
    04:00 +7°C° 0 mm 5 mps 743 mmHg 75%
    05:00 +8°C° 0 mm 5 mps 743 mmHg 71%
    06:00 +8°C° 0 mm 5 mps 743 mmHg 67%
    07:00 +10°C° 0 mm 6 mps 743 mmHg 66%
    08:00 +11°C° 0 mm 6 mps 743 mmHg 65%
    09:00 +14°C° 0 mm 6 mps 743 mmHg 64%
    10:00 +15°C° 0 mm 7 mps 743 mmHg 65%
    11:00 +15°C° 0 mm 7 mps 743 mmHg 66%
    12:00 +16°C° 0 mm 7 mps 742 mmHg 67%
    13:00 +17°C° 0 mm 7 mps 742 mmHg 68%
    14:00 +17°C° 0 mm 7 mps 742 mmHg 68%
    15:00 +18°C° 0 mm 7 mps 741 mmHg 69%
    16:00 +19°C° 0.1 mm 6 mps 741 mmHg 71%
    17:00 +19°C° 0.1 mm 6 mps 740 mmHg 73%
    18:00 +19°C° 0.1 mm 5 mps 740 mmHg 76%
    19:00 +17°C° 0 mm 5 mps 740 mmHg 78%
    20:00 +16°C° 0 mm 6 mps 740 mmHg 80%
    21:00 +15°C° 0 mm 6 mps 739 mmHg 82%
    22:00 +14°C° 0 mm 6 mps 739 mmHg 80%
    23:00 +14°C° 0 mm 6 mps 739 mmHg 78%

    26 May, Sunday

    Time Temperature Precipitation Wind Pressure Humidity
    00:00 +14°C° 0 mm 7 mps 738 mmHg 76%
    01:00 +14°C° 0 mm 6 mps 738 mmHg 79%
    02:00 +14°C° 0 mm 6 mps 738 mmHg 82%
    03:00 +13°C° 0 mm 6 mps 737 mmHg 85%
    04:00 +13°C° 0.1 mm 6 mps 737 mmHg 87%
    05:00 +13°C° 0.1 mm 5 mps 737 mmHg 90%
    06:00 +13°C° 0.1 mm 5 mps 736 mmHg 93%
    07:00 +13°C° 0.2 mm 4 mps 736 mmHg 92%
    08:00 +13°C° 0.2 mm 4 mps 736 mmHg 91%
    09:00 +13°C° 0.2 mm 3 mps 736 mmHg 90%
    10:00 +13°C° 0.3 mm 3 mps 736 mmHg 92%
    11:00 +14°C° 0.3 mm 2 mps 735 mmHg 93%
    12:00 +14°C° 0.3 mm 2 mps 735 mmHg 95%
    13:00 +16°C° 0 mm 2 mps 735 mmHg 87%
    14:00 +18°C° 0 mm 3 mps 735 mmHg 80%
    15:00 +20°C° 0 mm 3 mps 735 mmHg 73%
    16:00 +19°C° 0.4 mm 3 mps 735 mmHg 76%
    17:00 +19°C° 0.4 mm 3 mps 735 mmHg 79%
    18:00 +19°C° 0.4 mm 3 mps 734 mmHg 81%
    19:00 +18°C° 0.1 mm 3 mps 734 mmHg 85%
    20:00 +17°C° 0.1 mm 3 mps 734 mmHg 89%
    21:00 +14°C° 0.1 mm 3 mps 734 mmHg 92%
    22:00 +14°C° 0 mm 3 mps 734 mmHg 93%
    23:00 +14°C° 0 mm 3 mps 734 mmHg 94%

    27 May, Monday

    Time Temperature Precipitation Wind Pressure Humidity
    00:00 +13°C° 0 mm 3 mps 734 mmHg 95%
    01:00 +13°C° 0 mm 3 mps 735 mmHg 96%
    02:00 +13°C° 0 mm 3 mps 735 mmHg 96%
    03:00 +13°C° 0 mm 3 mps 735 mmHg 96%
    04:00 +14°C° 0 mm 3 mps 735 mmHg 95%
    05:00 +14°C° 0 mm 4 mps 736 mmHg 93%
    06:00 +14°C° 0 mm 4 mps 736 mmHg 91%
    07:00 +15°C° 0 mm 4 mps 737 mmHg 83%
    08:00 +17°C° 0 mm 5 mps 737 mmHg 76%
    09:00 +19°C° 0 mm 5 mps 737 mmHg 68%
    10:00 +20°C° 0 mm 6 mps 738 mmHg 65%
    11:00 +21°C° 0 mm 6 mps 738 mmHg 62%
    12:00 +21°C° 0 mm 7 mps 738 mmHg 59%
    13:00 +21°C° 0.6 mm 7 mps 738 mmHg 66%
    14:00 +20°C° 0.6 mm 8 mps 738 mmHg 73%
    15:00 +18°C° 0.6 mm 9 mps 738 mmHg 80%
    16:00 +18°C° 0.4 mm 8 mps 738 mmHg 79%
    17:00 +17°C° 0.4 mm 7 mps 738 mmHg 79%
    18:00 +17°C° 0.4 mm 6 mps 738 mmHg 79%
    19:00 +15°C° 0 mm 6 mps 739 mmHg 79%
    20:00 +14°C° 0 mm 5 mps 739 mmHg 80%
    21:00 +12°C° 0 mm 5 mps 740 mmHg 81%
    22:00 +12°C° 0 mm 4 mps 740 mmHg 82%
    23:00 +11°C° 0 mm 4 mps 741 mmHg 83%
    Show more